| time (UTC) | temp F | wind direction | speed MPH | gust MPH | rain 1hr in | rain 24hr in | rain mn in | humidity % | barometer mb |
| 20260507014118 | 56 | 187 | 3.0 | 13.0 | 0.00 | 0.00 | 0.00 | 79 | 1020.2 |
| 20260507013114 | 56 | 242 | 2.0 | 8.0 | 0.00 | 0.00 | 0.00 | 79 | 1020.3 |
| 20260507012114 | 56 | 249 | 4.0 | 16.0 | 0.00 | 0.00 | 0.00 | 77 | 1020.0 |
| 20260507011559 | 57 | 253 | 5.0 | 13.0 | 0.00 | 0.00 | 0.00 | 78 | 1020.4 |
| 20260507010112 | 57 | 275 | 5.0 | 14.0 | 0.00 | 0.00 | 0.00 | 78 | 1020.2 |
| 20260507005111 | 57 | 244 | 5.0 | 9.0 | 0.00 | 0.00 | 0.00 | 79 | 1020.3 |
| 20260507004110 | 57 | 239 | 3.0 | 8.0 | 0.00 | 0.00 | 0.00 | 78 | 1020.2 |
| 20260507003108 | 57 | 225 | 3.0 | 10.0 | 0.00 | 0.00 | 0.00 | 77 | 1020.1 |
| 20260507002102 | 57 | 262 | 3.0 | 8.0 | 0.00 | 0.00 | 0.00 | 77 | 1020.4 |
| 20260507001544 | 57 | 259 | 3.0 | 8.0 | 0.00 | 0.00 | 0.00 | 77 | 1020.3 |
| 20260507000101 | 58 | 258 | 2.0 | 7.0 | 0.00 | 0.00 | 0.00 | 77 | 1020.3 |
| 20260506235058 | 58 | 255 | 2.0 | 6.0 | 0.00 | 0.00 | 0.00 | 76 | 1020.3 |
| 20260506234057 | 57 | 240 | 2.0 | 6.0 | 0.00 | 0.00 | 0.00 | 76 | 1020.3 |
| 20260506233055 | 57 | 252 | 2.0 | 3.0 | 0.00 | 0.00 | 0.00 | 77 | 1020.3 |
| 20260506232053 | 57 | 236 | 1.0 | 7.0 | 0.00 | 0.00 | 0.00 | 78 | 1020.5 |
| 20260506231526 | 56 | 224 | 2.0 | 8.0 | 0.00 | 0.00 | 0.00 | 78 | 1020.5 |
| 20260506230527 | 57 | 233 | 4.0 | 9.0 | 0.00 | 0.00 | 0.00 | 79 | 1020.6 |
| 20260506225047 | 57 | 191 | 3.0 | 8.0 | 0.00 | 0.00 | 0.00 | 80 | 1020.4 |
| 20260506224030 | 57 | 256 | 3.0 | 9.0 | 0.00 | 0.00 | 0.00 | 79 | 1020.5 |
| 20260506223030 | 57 | 236 | 4.0 | 7.0 | 0.00 | 0.00 | 0.00 | 80 | 1020.6 |
| 20260506222029 | 57 | 228 | 2.0 | 10.0 | 0.00 | 0.00 | 0.00 | 80 | 1020.6 |
| 20260506221030 | 56 | 273 | 4.0 | 6.0 | 0.00 | 0.00 | 0.00 | 80 | 1020.8 |
| 20260506214029 | 56 | 254 | 2.0 | 10.0 | 0.00 | 0.00 | 0.00 | 80 | 1020.9 |
| 20260506213509 | 56 | 255 | 6.0 | 9.0 | 0.00 | 0.00 | 0.00 | 79 | 1020.6 |
| 20260506212028 | 57 | 252 | 3.0 | 8.0 | 0.00 | 0.00 | 0.00 | 79 | 1020.8 |
| 20260506211510 | 57 | 241 | 3.0 | 7.0 | 0.00 | 0.00 | 0.00 | 78 | 1020.8 |
| 20260506210025 | 56 | 237 | 3.0 | 7.0 | 0.00 | 0.00 | 0.00 | 79 | 1020.8 |
| 20260506205022 | 56 | 237 | 3.0 | 9.0 | 0.00 | 0.00 | 0.00 | 77 | 1020.6 |
| 20260506204002 | 56 | 208 | 1.0 | 8.0 | 0.00 | 0.00 | 0.00 | 79 | 1020.8 |
| 20260506203001 | 56 | 229 | 5.0 | 8.0 | 0.00 | 0.00 | 0.00 | 78 | 1020.7 |
| 20260506202000 | 56 | 242 | 0.0 | 7.0 | 0.00 | 0.00 | 0.00 | 79 | 1020.8 |
| 20260506201002 | 56 | 256 | 3.0 | 7.0 | 0.00 | 0.00 | 0.00 | 78 | 1020.5 |
| 20260506200003 | 56 | 253 | 2.0 | 7.0 | 0.00 | 0.00 | 0.00 | 79 | 1020.7 |
| 20260506195002 | 56 | 249 | 1.0 | 8.0 | 0.00 | 0.00 | 0.00 | 78 | 1020.6 |
| 20260506194001 | 55 | 234 | 2.0 | 7.0 | 0.00 | 0.00 | 0.00 | 79 | 1020.3 |
| 20260506193003 | 55 | 261 | 3.0 | 9.0 | 0.00 | 0.00 | 0.00 | 79 | 1020.5 |
| 20260506192001 | 55 | 251 | 4.0 | 11.0 | 0.00 | 0.00 | 0.00 | 80 | 1020.4 |
| 20260506191001 | 55 | 240 | 4.0 | 11.0 | 0.00 | 0.00 | 0.00 | 77 | 1020.5 |
| 20260506190449 | 55 | 233 | 2.0 | 11.0 | 0.00 | 0.00 | 0.00 | 77 | 1020.4 |
| 20260506184957 | 55 | 225 | 1.0 | 9.0 | 0.00 | 0.00 | 0.00 | 79 | 1020.5 |
| 20260506183956 | 55 | 253 | 3.0 | 11.0 | 0.00 | 0.00 | 0.00 | 80 | 1020.4 |
| 20260506182954 | 55 | 290 | 5.0 | 11.0 | 0.00 | 0.00 | 0.00 | 78 | 1020.4 |
| 20260506181952 | 55 | 278 | 4.0 | 10.0 | 0.00 | 0.00 | 0.00 | 77 | 1020.4 |
| 20260506181430 | 55 | 234 | 2.0 | 10.0 | 0.00 | 0.00 | 0.00 | 79 | 1020.6 |
| 20260506175950 | 55 | 224 | 2.0 | 10.0 | 0.00 | 0.00 | 0.00 | 78 | 1020.1 |
| 20260506174930 | 55 | 239 | 5.0 | 8.0 | 0.00 | 0.00 | 0.00 | 79 | 1020.1 |
| 20260506173929 | 55 | 204 | 4.0 | 7.0 | 0.00 | 0.00 | 0.00 | 78 | 1020.1 |
| 20260506172929 | 55 | 246 | 2.0 | 7.0 | 0.00 | 0.00 | 0.00 | 80 | 1020.0 |
| 20260506171930 | 55 | 240 | 0.0 | 8.0 | 0.00 | 0.00 | 0.00 | 79 | 1020.1 |
| 20260506170929 | 55 | 247 | 2.0 | 7.0 | 0.00 | 0.00 | 0.00 | 80 | 1020.2 |
| 20260506165930 | 55 | 254 | 1.0 | 9.0 | 0.00 | 0.00 | 0.00 | 80 | 1020.1 |
| 20260506164929 | 55 | 228 | 3.0 | 7.0 | 0.00 | 0.00 | 0.00 | 79 | 1020.4 |
| 20260506163929 | 54 | 254 | 2.0 | 4.0 | 0.00 | 0.00 | 0.00 | 79 | 1020.1 |
| 20260506162931 | 54 | 264 | 2.0 | 8.0 | 0.00 | 0.00 | 0.00 | 78 | 1020.1 |
| 20260506161930 | 54 | 231 | 5.0 | 9.0 | 0.00 | 0.00 | 0.00 | 78 | 1020.0 |
| 20260506160929 | 54 | 258 | 4.0 | 9.0 | 0.00 | 0.00 | 0.00 | 79 | 1020.1 |
| 20260506160406 | 54 | 250 | 2.0 | 9.0 | 0.00 | 0.00 | 0.00 | 80 | 1020.0 |
| 20260506154927 | 54 | 242 | 2.0 | 8.0 | 0.00 | 0.00 | 0.00 | 83 | 1019.5 |
| 20260506154359 | 54 | 246 | 2.0 | 7.0 | 0.00 | 0.00 | 0.00 | 83 | 1019.8 |
| 20260506152926 | 54 | 252 | 4.0 | 7.0 | 0.00 | 0.00 | 0.00 | 84 | 1019.8 |
| 20260506151924 | 53 | 263 | 2.0 | 4.0 | 0.00 | 0.00 | 0.00 | 85 | 1019.7 |
| 20260506150922 | 53 | 268 | 1.0 | 7.0 | 0.00 | 0.00 | 0.00 | 85 | 1019.6 |
| 20260506145922 | 53 | 273 | 0.0 | 6.0 | 0.00 | 0.00 | 0.00 | 87 | 1019.6 |
| 20260506145359 | 53 | 258 | 2.0 | 4.0 | 0.00 | 0.00 | 0.00 | 87 | 1019.6 |
| 20260506143921 | 53 | 253 | 0.0 | 4.0 | 0.00 | 0.00 | 0.00 | 87 | 1019.5 |
| 20260506142917 | 53 | 259 | 0.0 | 4.0 | 0.00 | 0.00 | 0.00 | 88 | 1019.7 |
| 20260506141917 | 53 | 251 | 0.0 | 6.0 | 0.00 | 0.00 | 0.00 | 88 | 1019.5 |
| 20260506140916 | 53 | 252 | 1.0 | 3.0 | 0.00 | 0.00 | 0.00 | 89 | 1019.4 |
| 20260506135902 | 53 | 244 | 0.0 | 1.0 | 0.00 | 0.00 | 0.00 | 89 | 1019.3 |
| 20260506134902 | 53 | 214 | 0.0 | 2.0 | 0.00 | 0.00 | 0.00 | 90 | 1019.2 |
| 20260506133901 | 53 | 214 | 0.0 | 2.0 | 0.00 | 0.00 | 0.00 | 90 | 1019.1 |
| 20260506132902 | 53 | 214 | 0.0 | 2.0 | 0.00 | 0.00 | 0.00 | 90 | 1019.1 |
| 20260506131902 | 53 | 202 | 0.0 | 2.0 | 0.00 | 0.00 | 0.00 | 90 | 1018.9 |
| 20260506130901 | 53 | 246 | 0.0 | 2.0 | 0.00 | 0.00 | 0.00 | 90 | 1019.2 |
| 20260506125901 | 53 | 248 | 0.0 | 2.0 | 0.00 | 0.00 | 0.00 | 89 | 1019.0 |
| 20260506124901 | 53 | 241 | 0.0 | 3.0 | 0.00 | 0.00 | 0.00 | 87 | 1018.8 |
| 20260506123859 | 53 | 253 | 0.0 | 7.0 | 0.00 | 0.00 | 0.00 | 87 | 1018.7 |
| 20260506122854 | 53 | 253 | 0.0 | 2.0 | 0.00 | 0.00 | 0.00 | 87 | 1018.7 |
| 20260506121854 | 53 | 254 | 0.0 | 9.0 | 0.00 | 0.00 | 0.00 | 88 | 1018.7 |
| 20260506120853 | 53 | 240 | 3.0 | 9.0 | 0.00 | 0.00 | 0.00 | 87 | 1018.8 |
| 20260506115850 | 53 | 256 | 4.0 | 8.0 | 0.00 | 0.00 | 0.00 | 89 | 1018.7 |
| 20260506114847 | 54 | 245 | 1.0 | 6.0 | 0.00 | 0.00 | 0.00 | 88 | 1018.5 |
| 20260506113846 | 53 | 258 | 2.0 | 7.0 | 0.00 | 0.00 | 0.00 | 87 | 1018.6 |
| 20260506112844 | 53 | 246 | 0.0 | 6.0 | 0.00 | 0.00 | 0.00 | 88 | 1018.5 |
| 20260506111843 | 54 | 255 | 1.0 | 8.0 | 0.00 | 0.00 | 0.00 | 88 | 1018.2 |
| 20260506110842 | 54 | 258 | 2.0 | 6.0 | 0.00 | 0.00 | 0.00 | 87 | 1018.1 |
| 20260506105841 | 54 | 256 | 3.0 | 9.0 | 0.00 | 0.00 | 0.00 | 87 | 1018.2 |
| 20260506104842 | 54 | 265 | 6.0 | 9.0 | 0.00 | 0.00 | 0.00 | 87 | 1018.2 |
| 20260506103839 | 54 | 262 | 4.0 | 8.0 | 0.00 | 0.00 | 0.00 | 87 | 1018.0 |
| 20260506102838 | 54 | 263 | 4.0 | 7.0 | 0.00 | 0.00 | 0.00 | 88 | 1018.2 |
| 20260506101837 | 54 | 238 | 4.0 | 9.0 | 0.00 | 0.00 | 0.00 | 87 | 1018.2 |
| 20260506101311 | 54 | 252 | 4.0 | 8.0 | 0.00 | 0.00 | 0.00 | 86 | 1018.1 |
| 20260506095829 | 54 | 274 | 5.0 | 9.0 | 0.00 | 0.00 | 0.00 | 86 | 1018.0 |
| 20260506094828 | 54 | 251 | 5.0 | 9.0 | 0.00 | 0.00 | 0.00 | 86 | 1017.7 |
| 20260506094318 | 54 | 264 | 4.0 | 8.0 | 0.00 | 0.00 | 0.00 | 87 | 1017.9 |
| 20260506092802 | 54 | 260 | 0.0 | 7.0 | 0.00 | 0.00 | 0.00 | 87 | 1017.7 |
| 20260506091802 | 54 | 282 | 2.0 | 8.0 | 0.00 | 0.00 | 0.00 | 86 | 1017.7 |
| 20260506090801 | 54 | 256 | 2.0 | 4.0 | 0.00 | 0.00 | 0.00 | 86 | 1017.6 |
| 20260506090243 | 54 | 243 | 3.0 | 7.0 | 0.00 | 0.00 | 0.00 | 86 | 1017.6 |
| 20260506084802 | 54 | 253 | 3.0 | 7.0 | 0.00 | 0.00 | 0.00 | 86 | 1017.6 |
| 20260506083802 | 54 | 232 | 3.0 | 8.0 | 0.00 | 0.00 | 0.00 | 87 | 1017.6 |
| 20260506081803 | 55 | 246 | 3.0 | 10.0 | 0.00 | 0.00 | 0.00 | 85 | 1017.4 |
| 20260506080801 | 55 | 230 | 1.0 | 7.0 | 0.00 | 0.00 | 0.00 | 85 | 1017.2 |
| 20260506072801 | 55 | 271 | 3.0 | 11.0 | 0.00 | 0.00 | 0.00 | 85 | 1016.9 |
| 20260506071801 | 55 | 249 | 6.0 | 11.0 | 0.00 | 0.00 | 0.00 | 86 | 1016.9 |
| 20260506070803 | 55 | 264 | 5.0 | 10.0 | 0.00 | 0.00 | 0.00 | 85 | 1016.7 |
| 20260506061801 | 55 | 250 | 2.0 | 10.0 | 0.00 | 0.00 | 0.00 | 82 | 1016.5 |
| 20260506060801 | 56 | 246 | 3.0 | 9.0 | 0.00 | 0.00 | 0.00 | 82 | 1016.5 |
| 20260506050801 | 57 | 261 | 4.0 | 8.0 | 0.00 | 0.00 | 0.00 | 81 | 1016.2 |
| 20260506044802 | 58 | 271 | 4.0 | 9.0 | 0.00 | 0.00 | 0.00 | 80 | 1015.8 |
| 20260506043801 | 58 | 265 | 6.0 | 9.0 | 0.00 | 0.00 | 0.00 | 78 | 1016.0 |
| 20260506042801 | 58 | 230 | 4.0 | 9.0 | 0.00 | 0.00 | 0.00 | 78 | 1016.0 |
| 20260506041759 | 58 | 263 | 5.0 | 9.0 | 0.00 | 0.00 | 0.00 | 78 | 1015.8 |
| 20260506040755 | 59 | 245 | 6.0 | 11.0 | 0.00 | 0.00 | 0.00 | 76 | 1015.8 |
| 20260506040234 | 59 | 245 | 4.0 | 14.0 | 0.00 | 0.00 | 0.00 | 75 | 1015.7 |
| 20260506034754 | 60 | 259 | 3.0 | 9.0 | 0.00 | 0.00 | 0.00 | 75 | 1015.6 |
| 20260506033752 | 60 | 264 | 5.0 | 7.0 | 0.00 | 0.00 | 0.00 | 74 | 1015.4 |
| 20260506033228 | 61 | 254 | 2.0 | 6.0 | 0.00 | 0.00 | 0.00 | 73 | 1015.4 |
| 20260506031752 | 62 | 233 | 0.0 | 4.0 | 0.00 | 0.00 | 0.00 | 72 | 1015.1 |
| 20260506030749 | 62 | 239 | 1.0 | 6.0 | 0.00 | 0.00 | 0.00 | 71 | 1015.2 |
| 20260506025747 | 63 | 251 | 2.0 | 6.0 | 0.00 | 0.00 | 0.00 | 69 | 1015.0 |
| 20260506024745 | 63 | 245 | 0.0 | 6.0 | 0.00 | 0.00 | 0.00 | 69 | 1015.0 |
| 20260506023744 | 64 | 257 | 3.0 | 7.0 | 0.00 | 0.00 | 0.00 | 68 | 1014.9 |
| 20260506023223 | 64 | 237 | 1.0 | 7.0 | 0.00 | 0.00 | 0.00 | 68 | 1014.7 |
| 20260506021742 | 64 | 249 | 4.0 | 6.0 | 0.00 | 0.00 | 0.00 | 68 | 1014.8 |
| 20260506020739 | 64 | 258 | 1.0 | 4.0 | 0.00 | 0.00 | 0.00 | 69 | 1014.8 |
| 20260506020217 | 64 | 241 | 1.0 | 4.0 | 0.00 | 0.00 | 0.00 | 69 | 1015.0 |